Stations météo

réclame
Mon MeteoGroup
Brodersby-Schönhagen, Allemagne (10042): Température de l'air & dewpoint: 08.12.2019 04:00:00 - 14.12.2019 04:00:00 (CET)Brodersby-Schönhagen, Allemagne (10042): Température de l'air 5cm & Température de l'air -5cm: 08.12.2019 04:00:00 - 14.12.2019 04:00:00 (CET)Brodersby-Schönhagen, Allemagne (10042): Température de l'air -20cm & Température de l'air -100cm: 08.12.2019 04:00:00 - 14.12.2019 04:00:00 (CET)Brodersby-Schönhagen, Allemagne (10042): Vitesse du vent & gusts: 08.12.2019 04:00:00 - 14.12.2019 04:00:00 (CET)Brodersby-Schönhagen, Allemagne (10042): Direction du vent: 08.12.2019 04:00:00 - 14.12.2019 04:00:00 (CET)Brodersby-Schönhagen, Allemagne (10042): reduced air pressure: 08.12.2019 04:00:00 - 14.12.2019 04:00:00 (CET)Brodersby-Schönhagen, Allemagne (10042): visibility: 08.12.2019 04:00:00 - 14.12.2019 04:00:00 (CET)Brodersby-Schönhagen, Allemagne (10042): Ensoleillement: 08.12.2019 04:00:00 - 14.12.2019 04:00:00 (CET)Brodersby-Schönhagen, Allemagne (10042): Quantités de précipitations: 08.12.2019 04:00:00 - 14.12.2019 04:00:00 (CET)
Date & Time tt [°C] td [°C] tt 5cm [°C] tt -5cm [°C] tt -20cm [°C] tt -100cm [°C] ff [km/h] ff [knt] fx [km/h] fx [knt] dd ppp [hPa] vv [km] sd [min] rr [mm]
14.12.2019 04:00:00 1,5 0,7 1,2 1,9 3,4 7,6 16 9 26 14 S 980,4 7 0 0,5
14.12.2019 03:00:00 0,9 0,1 0,4 2,1 3,5 7,6 13 7 26 14 S 980,9 4,6 0 0,5
14.12.2019 02:00:00 1,7 0,7 1,3 2,3 3,5 7,6 15 8 24 13 S 981,3 8 0 0,2
14.12.2019 01:00:00 1,4 0,3 1,0 2,3 3,5 7,6 12 7 22 12 S 981,7 6 0 0,3
14.12.2019 00:00:00 2,0 0,2 1,5 2,4 3,6 7,7 13 7 23 13 S 982,2 11 0 0,0
13.12.2019 23:00:00 2,1 -0,3 1,6 2,5 3,6 7,7 14 8 33 18 SSE 982,3 12 0 0,0
13.12.2019 22:00:00 2,5 -0,5 2,2 2,5 3,7 7,7 19 10 31 17 SSE 982,4 21 0 0,0
13.12.2019 21:00:00 2,6 -0,7 2,2 2,6 3,7 7,7 18 10 35 19 S 982,6 25 0 0,0
13.12.2019 20:00:00 3,1 0,0 2,7 2,6 3,7 7,7 27 14 39 21 SE 982,5 25 0 0,0
13.12.2019 19:00:00 3,2 0,4 2,8 2,7 3,7 7,7 33 18 43 23 SE 982,5 20 0 0,0
13.12.2019 18:00:00 3,6 0,7 3,2 2,9 3,8 7,7 36 19 46 25 SE 982,1 23 0 0,0
13.12.2019 17:00:00 3,8 0,8 3,2 2,9 3,8 7,7 40 21 47 26 SE 982,1 28 0 0,0
13.12.2019 16:00:00 3,7 0,9 3,2 3,0 3,8 7,7 38 20 46 25 ESE 981,6 26 0 0,0
13.12.2019 15:00:00 3,6 1,1 3,2 3,2 3,7 7,7 37 20 50 27 ESE 981,3 22 2 0,0
13.12.2019 14:00:00 3,6 0,9 3,2 3,3 3,6 7,7 42 23 54 29 ESE 981,2 20 27 0,0
13.12.2019 13:00:00 3,6 1,0 3,3 3,2 3,5 7,7 45 24 57 31 ESE 981,3 21 53 0,0
13.12.2019 12:00:00 3,6 0,7 3,6 2,7 3,4 7,7 46 25 57 31 ESE 981,5 20 54 0,0
13.12.2019 11:00:00 3,2 0,6 3,1 2,3 3,4 7,7 44 24 55 30 SE 982,2 22 56 0,0
13.12.2019 10:00:00 3,1 0,4 2,7 1,8 3,4 7,7 42 23 55 30 SE 982,6 25 50 0,0
13.12.2019 09:00:00 3,1 0,3 2,1 1,7 3,5 7,7 39 21 55 30 SE 982,6 29 0 0,0
13.12.2019 08:00:00 2,9 0,3 1,9 1,7 3,6 7,7 37 20 54 29 SE 983,2 29 0 0,0
13.12.2019 07:00:00 2,9 0,2 1,8 1,8 3,7 7,7 40 22 53 29 SE 983,7 36 0 0,0
13.12.2019 06:00:00 3,1 0,4 1,9 2,0 3,7 7,7 37 20 53 28 SE 984,4 34 0 0,0
13.12.2019 05:00:00 3,0 0,8 2,2 2,2 3,8 7,7 37 20 53 29 SE 985,3 28 0 0,0
13.12.2019 04:00:00 3,6 1,0 2,4 2,2 3,9 7,7 41 22 56 30 SE 986,3 37 0 0,0
13.12.2019 03:00:00 4,1 1,0 2,8 2,2 4,0 7,7 33 18 50 27 SE 987,6 51 0 0,0
13.12.2019 02:00:00 3,7 1,4 2,5 2,3 4,1 7,7 26 14 43 23 SSE 988,7 33 0 0,0
13.12.2019 01:00:00 3,6 1,1 2,4 2,6 4,2 7,7 26 14 40 22 SSE 989,9 32 0 0,0
13.12.2019 00:00:00 3,7 1,8 2,9 2,6 4,3 7,7 23 13 44 24 SSE 991,1 22 0 0,0
12.12.2019 23:00:00 3,5 1,7 2,2 2,8 4,4 7,7 20 11 37 20 SSE 992,3 17 0 0,0
12.12.2019 22:00:00 3,6 2,0 2,7 3,0 4,5 7,7 19 10 34 19 S 993,2 13 0 0,0
12.12.2019 21:00:00 3,5 1,9 2,2 2,8 4,7 7,8 19 11 28 15 S 994,2 14 0 0,0
12.12.2019 20:00:00 3,8 2,1 2,3 3,1 4,9 7,8 16 8 24 13 S 994,7 14 0 0,0
12.12.2019 19:00:00 3,4 1,8 1,7 3,7 5,0 7,8 12 6 21 11 S 995,5 16 0 0,0
12.12.2019 18:00:00 4,7 2,2 3,8 4,4 5,1 7,8 16 8 25 13 SSW 995,9 24 0 0,0
12.12.2019 17:00:00 5,1 2,6 4,2 4,7 5,1 7,8 17 9 29 15 SSW 996,3 24 0 0,0
12.12.2019 16:00:00 5,3 3,2 4,8 4,9 5,1 7,8 13 7 29 15 SSW 996,6 19 0 0,0
12.12.2019 15:00:00 5,5 3,5 4,8 5,0 5,0 7,8 16 9 29 16 SSW 996,6 15 0 0,0
12.12.2019 14:00:00 5,6 3,4 5,3 5,0 4,9 7,8 18 10 29 15 SSW 996,9 16 0 0,0
12.12.2019 13:00:00 5,5 3,7 5,1 4,9 4,9 7,8 15 8 28 15 SSW 997,5 12 0 0,0
12.12.2019 12:00:00 5,3 3,7 5,0 4,6 4,8 7,8 14 8 26 14 SSW 997,9 8 0 0,0
12.12.2019 11:00:00 4,9 3,5 4,7 4,3 4,8 7,8 13 7 23 12 SSW 998,5 6 0 0,0
12.12.2019 10:00:00 4,7 2,8 4,5 4,1 4,8 7,8 17 9 26 14 S 998,9 9 0 0,0
12.12.2019 09:00:00 4,3 2,2 3,9 3,9 4,8 7,8 9 5 23 12 S 999,2 14 0 0,0
12.12.2019 08:00:00 4,4 2,8 3,9 3,9 4,9 7,8 15 8 24 13 SW 999,6 9 0 0,0
12.12.2019 07:00:00 3,7 2,8 2,5 4,0 5,0 7,8 14 7 25 13 SW 999,6 5 0 0,0
12.12.2019 06:00:00 4,8 3,7 4,1 4,3 5,0 7,8 13 7 21 11 SSW 999,7 6 0 0,0
12.12.2019 05:00:00 4,7 3,7 4,2 4,3 5,1 7,8 10 5 16 9 SSW 999,9 6 0 0,0
12.12.2019 04:00:00 4,5 3,7 3,6 4,5 5,1 7,8 10 5 16 9 SW 1000,4 6 0 0,0
12.12.2019 03:00:00 4,7 4,2 3,8 4,6 5,1 7,8 10 5 14 8 SSW 1000,9 6 0 0,0
12.12.2019 02:00:00 5,0 4,5 4,5 4,9 5,1 7,8 8 4 11 6 SSW 1001,0 8 0 0,0
12.12.2019 01:00:00 5,1 4,7 4,8 4,9 5,1 7,8 6 4 13 7 S 1001,5 3,5 0 0,0
12.12.2019 00:00:00 5,2 4,8 4,9 4,9 5,1 7,8 8 4 16 8 S 1002,4 3,8 0 0,0
11.12.2019 23:00:00 5,2 4,6 5,0 4,8 5,1 7,8 9 5 16 9 S 1002,6 4,4 0 0,0
11.12.2019 22:00:00 5,3 4,5 5,0 4,8 5,1 7,9 11 6 18 10 S 1003,0 5 0 0,0
11.12.2019 21:00:00 5,2 4,5 4,9 4,8 5,1 7,9 9 5 14 7 S 1003,4 4,6 0 0,0
11.12.2019 20:00:00 5,3 4,7 4,9 4,9 5,1 7,9 7 4 14 7 SSW 1003,7 4,2 0 0,0
11.12.2019 19:00:00 5,4 4,7 5,0 4,9 5,1 7,9 9 5 19 10 SSW 1004,1 4,6 0 0,0
11.12.2019 18:00:00 5,5 4,4 5,1 5,0 5,0 7,9 11 6 19 10 S 1004,3 7 0 0,0
11.12.2019 17:00:00 5,6 4,5 5,3 5,0 5,0 7,9 10 5 17 9 S 1004,5 10 0 0,0
11.12.2019 16:00:00 5,7 4,7 5,3 5,1 5,0 7,9 10 5 18 10 S 1004,8 12 0 0,0
11.12.2019 15:00:00 5,8 4,8 5,3 5,2 4,9 7,9 9 5 21 11 SSW 1004,9 10 0 0,0
11.12.2019 14:00:00 5,9 4,7 5,7 5,2 4,7 7,9 15 8 26 14 SSW 1005,3 12 0 0,0
11.12.2019 13:00:00 5,8 4,5 5,7 5,0 4,6 7,9 16 8 29 16 SSW 1005,7 14 0 0,0
11.12.2019 12:00:00 5,8 4,4 5,6 4,8 4,5 7,9 22 12 32 18 SSW 1006,2 19 0 0,0
11.12.2019 11:00:00 5,6 4,2 5,3 4,5 4,4 7,9 22 12 32 17 SSW 1006,7 23 0 0,0
11.12.2019 10:00:00 5,4 4,1 5,0 4,2 4,3 8,0 21 12 39 21 SSW 1006,8 24 0 0,0
11.12.2019 09:00:00 5,2 3,9 4,7 4,0 4,3 8,0 20 11 35 19 SSW 1006,6 29 0 0,1
11.12.2019 08:00:00 4,9 3,6 4,1 3,9 4,2 8,0 19 10 35 19 SSW 1006,2 21 0 0,6
11.12.2019 07:00:00 4,7 3,3 4,0 3,7 4,1 8,0 22 12 41 22 SSW 1006,2 17 0 0,7
11.12.2019 06:00:00 4,9 2,4 4,0 3,6 4,1 8,0 29 16 50 27 SSW 1006,0 22 0 0,0
11.12.2019 05:00:00 4,7 2,2 4,3 3,5 4,0 8,0 32 18 58 32 SSW 1005,8 26 0 0,0
11.12.2019 04:00:00 5,0 1,2 4,5 3,4 4,0 8,0 39 21 72 39 SSW 1006,3 41 0 0,0
11.12.2019 03:00:00 5,0 0,5 4,4 3,3 4,0 8,0 42 23 70 38 SSW 1006,5 52 0 0,0
11.12.2019 02:00:00 5,3 -0,3 4,7 3,2 3,9 8,0 43 23 64 35 SSW 1007,2 52 0 0,0
11.12.2019 01:00:00 5,0 -0,4 4,4 3,1 3,9 8,0 30 16 56 30 SSW 1007,8 53 0 0,0
11.12.2019 00:00:00 4,4 0,0 3,0 3,0 3,9 8,0 29 16 54 29 S 1008,9 28 0 0,1
10.12.2019 23:00:00 4,4 -0,1 3,0 2,9 3,9 8,0 28 15 49 26 S 1010,3 32 0 0,0
10.12.2019 22:00:00 4,3 0,1 3,8 2,8 3,9 8,1 31 17 53 29 S 1011,4 39 0 0,0
10.12.2019 21:00:00 4,1 0,6 3,4 2,7 3,9 8,1 30 16 56 30 S 1013,2 29 0 0,0
10.12.2019 20:00:00 3,9 0,6 3,1 2,6 3,9 8,1 27 15 50 27 S 1014,0 28 0 0,0
10.12.2019 19:00:00 4,1 0,5 3,0 2,5 4,0 8,1 29 16 44 24 S 1015,2 35 0 0,0
10.12.2019 18:00:00 4,3 0,4 3,0 2,7 4,1 8,1 23 13 36 19 S 1016,0 37 0 0,0
10.12.2019 17:00:00 4,4 0,4 3,0 3,1 4,2 8,1 18 10 29 15 S 1017,2 44 0 0,0
10.12.2019 16:00:00 4,8 0,9 3,3 3,9 4,1 8,1 16 8 29 16 S 1018,3 32 16 0,0
10.12.2019 15:00:00 5,9 1,8 5,3 4,0 3,9 8,1 14 8 26 14 SSW 1019,0 35 32 0,0
10.12.2019 14:00:00 5,5 1,9 4,9 3,7 3,6 8,1 14 8 24 13 SSW 1019,4 36 9 0,0
10.12.2019 13:00:00 5,3 2,0 5,1 3,1 3,4 8,1 12 7 21 11 S 1020,1 36 0 0,0
10.12.2019 12:00:00 4,9 1,6 4,9 2,1 3,4 8,1 12 6 17 9 SSW 1020,6 31 9 0,0
10.12.2019 11:00:00 3,8 1,4 3,6 1,3 3,4 8,1 12 7 21 11 SW 1020,5 34 53 0,0
10.12.2019 10:00:00 3,3 0,8 2,9 1,2 3,5 8,1 13 7 21 11 SW 1020,3 37 39 0,0
10.12.2019 09:00:00 1,5 -0,1 0,1 1,3 3,6 8,1 13 7 16 9 WSW 1019,7 37 0 0,0
10.12.2019 08:00:00 1,4 -0,6 -0,3 1,3 3,7 8,1 11 6 18 10 W 1019,1 34 0 0,0
10.12.2019 07:00:00 1,2 -1,1 -0,4 1,3 3,9 8,1 14 8 20 11 W 1018,4 32 0 0,0
10.12.2019 06:00:00 1,7 -1,1 0,2 1,3 4,0 8,1 15 8 20 11 W 1017,6 34 0 0,0
10.12.2019 05:00:00 1,9 -1,3 0,0 1,7 4,2 8,1 14 7 26 14 W 1016,6 33 0 0,0
10.12.2019 04:00:00 3,7 -0,6 1,9 1,9 4,4 8,1 18 10 29 16 WNW 1015,3 36 0 0,0
10.12.2019 03:00:00 3,7 -0,5 1,9 2,1 4,5 8,1 20 11 33 18 WNW 1013,8 43 0 0,0
10.12.2019 02:00:00 3,9 -0,3 2,3 2,2 4,7 8,1 21 11 34 18 WNW 1012,5 43 0 0,0
10.12.2019 01:00:00 3,6 -0,1 1,9 2,3 4,9 8,1 19 11 29 16 WNW 1011,1 50 0 0,0
10.12.2019 00:00:00 2,6 -0,3 1,3 2,7 5,2 8,1 17 9 24 13 W 1009,6 56 0 0,0
09.12.2019 23:00:00 3,4 0,0 1,8 3,3 5,4 8,1 17 9 29 16 W 1007,9 51 0 0,0
09.12.2019 22:00:00 5,1 0,1 3,7 3,8 5,5 8,1 24 13 42 23 WNW 1006,3 53 0 0,0
09.12.2019 21:00:00 5,9 1,4 4,8 3,9 5,7 8,1 25 13 49 27 WNW 1004,3 26 0 0,0
09.12.2019 20:00:00 5,3 1,2 4,1 4,1 5,8 8,1 29 16 45 25 WNW 1002,2 27 0 0,0
09.12.2019 19:00:00 5,6 1,1 4,2 4,4 6,0 8,1 26 14 45 24 W 1000,8 25 0 0,1
09.12.2019 18:00:00 5,7 1,3 4,2 5,0 6,2 8,1 25 13 39 21 WNW 999,4 31 0 0,0
09.12.2019 17:00:00 5,9 3,2 4,9 5,5 6,3 8,1 21 12 28 15 W 997,9 32 0 0,0
09.12.2019 16:00:00 6,2 3,8 5,5 6,1 6,3 8,1 16 9 29 16 W 996,4 48 0 0,1
09.12.2019 15:00:00 6,8 5,1 5,9 6,4 6,2 8,1 25 13 42 23 W 995,1 11 0 0,1
09.12.2019 14:00:00 6,8 5,1 6,5 6,5 6,1 8,1 27 14 44 24 WSW 994,0 30 13 0,1
09.12.2019 13:00:00 6,8 4,6 6,2 6,3 6,0 8,1 30 16 51 28 WSW 992,9 36 0 0,2
09.12.2019 12:00:00 7,3 4,1 7,0 6,1 5,8 8,1 31 17 54 29 WSW 992,7 27 2 0,0
09.12.2019 11:00:00 7,0 3,8 6,8 5,6 5,8 8,1 32 17 55 30 SW 992,5 41 0 0,0
09.12.2019 10:00:00 6,6 3,6 6,3 5,2 5,8 8,1 35 19 54 29 SW 991,7 36 0 0,0
09.12.2019 09:00:00 6,5 3,4 5,9 4,9 5,8 8,1 37 20 53 29 SW 991,1 33 0 0,0
09.12.2019 08:00:00 6,2 3,3 5,7 4,8 5,8 8,1 30 16 48 26 SW 990,5 30 0 0,0
09.12.2019 07:00:00 6,0 3,2 5,1 4,9 5,9 8,1 31 17 53 28 SW 990,2 38 0 0,0
09.12.2019 06:00:00 6,2 3,5 5,1 5,1 6,0 8,0 35 19 51 28 SW 990,0 31 0 0,0
09.12.2019 05:00:00 6,2 3,5 4,9 5,2 6,0 8,0 35 19 49 26 SW 990,1 37 0 0,9
09.12.2019 04:00:00 6,0 3,5 5,2 5,0 6,1 8,0 37 20 57 31 SW 989,8 43 0 0,0
09.12.2019 03:00:00 6,8 3,5 5,9 5,1 6,2 8,0 40 22 58 32 SW 989,9 37 0 0,0
09.12.2019 02:00:00 6,4 3,5 5,4 5,1 6,3 8,0 30 16 50 27 SW 989,4 33 0 0,0
09.12.2019 01:00:00 6,5 3,5 5,8 5,2 6,4 8,0 35 19 53 28 SW 989,5 30 0 0,0
09.12.2019 00:00:00 6,6 3,2 5,5 5,3 6,5 8,0 32 18 55 30 SW 989,7 38 0 0,0
08.12.2019 23:00:00 6,9 3,5 5,9 5,7 6,7 8,0 36 19 55 30 SW 989,7 32 0 0,1
08.12.2019 22:00:00 6,5 2,8 5,4 5,8 6,8 8,0 35 19 65 35 SW 989,9 40 0 0,0
08.12.2019 21:00:00 7,0 4,6 6,1 6,1 6,9 8,0 30 16 47 26 SW 990,1 29 0 0,0
08.12.2019 20:00:00 6,7 3,8 5,8 6,5 7,0 8,0 34 19 63 34 WSW 990,3 54 0 0,7
08.12.2019 19:00:00 7,7 4,7 6,2 6,6 7,1 8,0 36 19 59 32 WSW 990,5 16 0 0,2
08.12.2019 18:00:00 8,3 5,4 7,2 6,8 7,2 8,0 33 18 54 29 WSW 990,6 19 0 0,0
08.12.2019 17:00:00 8,0 4,7 6,9 7,3 7,2 8,0 31 17 63 34 WSW 990,3 29 0 0,0
08.12.2019 16:00:00 9,2 6,9 8,7 7,8 7,2 8,0 35 19 61 33 WSW 989,8 28 0 0,0
08.12.2019 15:00:00 9,6 7,3 9,1 7,9 7,1 8,0 40 22 62 34 WSW 989,4 28 0 0,0
08.12.2019 14:00:00 9,5 7,6 9,0 7,9 7,0 8,0 42 23 79 42 WSW 989,4 54 0 0,2
08.12.2019 13:00:00 9,3 8,0 8,6 7,7 6,8 8,0 48 26 91 49 SW 989,6 4,0 0 0,4
08.12.2019 12:00:00 9,0 7,6 8,2 7,4 6,7 8,0 50 27 72 39 SW 990,0 4,8 0 0,7
08.12.2019 11:00:00 8,6 7,3 7,8 7,0 6,7 8,0 47 25 70 38 SW 991,2 4,5 0 0,5
08.12.2019 10:00:00 7,8 6,5 7,1 6,8 6,7 8,0 43 23 63 34 SW 992,2 3,7 0 0,4
08.12.2019 09:00:00 8,0 5,7 7,1 6,8 6,6 8,0 41 22 61 33 SW 993,5 23 0 0,9
08.12.2019 08:00:00 8,2 5,8 7,0 6,8 6,6 8,0 36 20 67 36 SW 994,6 21 0 0,2
08.12.2019 07:00:00 8,8 5,4 8,3 6,8 6,6 7,9 41 22 70 38 SW 995,7 38 0 0,0
08.12.2019 06:00:00 8,4 5,6 8,0 6,6 6,6 7,9 43 23 61 33 SW 996,7 31 0 0,0
08.12.2019 05:00:00 8,3 5,0 7,8 6,5 6,6 7,9 45 25 70 38 SW 998,6 32 0 0,0
08.12.2019 04:00:00 8,1 4,7 7,6 6,5 6,6 7,9 38 21 56 31 SW 999,9 48 0 0,0

tt = Température de l'air
td = dewpoint
tt 5cm = Température de l'air 5cm
tt -5cm = Température de l'air -5cm
tt -20cm = Température de l'air -20cm
tt -100cm = Température de l'air -100cm
ff = Vitesse du vent
fx = gusts
dd = Direction du vent
ppp = reduced air pressure
vv = visibility
sd = Ensoleillement
rr = Quantités de précipitations

stations d'obs. à proximité